Retour au catalogue

TURKSAT 1C

ActifCommunicationsGEO
NORAD 23949·PAYLOAD·🇹🇷 Turkey

Lancé Jul 9, 1996 depuis Guiana Space Centre

Loading…

TLE

FraisSource: Space-Track

Époque: Sep 14, 2026, 17:49 UTC

1 23949U 96040B   26257.74277412 -.00000362  00000-0  00000-0 0  9994
2 23949  12.1939  29.4455 0007915 179.0562 179.4141  1.00302586110571

Suivez TURKSAT 1C en temps réel avec AllMySat

Download on the App Store